Skip Page Navigation
NASA JPL Caltech
NASA Logo - Jet Propulsion Laboratory + View the NASA Portal
+ Near-Earth Object (NEO) Program
Search JPL
JPL Home Earth Solar System Stars & Galaxies Technology
JPL Solar System Dynamics
BODIES ORBITS EPHEMERIDES TOOLS PHYSICAL DATA DISCOVERY FAQ SITE MAP
JPL Small-Body Database Browser
Search: [ help ]  
5190 Fry (1990 UR2)
Classification: Main-belt Asteroid          SPK-ID: 2005190
Ephemeris | Orbit Diagram | Orbital Elements | Physical Parameters | Discovery Circumstances | Close-Approach Data ]

[ show orbit diagram ]
Orbital Elements at Epoch 2457000.5 (2014-Dec-09.0) TDB
Reference: JPL 16 (heliocentric ecliptic J2000)
 Element Value Uncertainty (1-sigma)   Units 
e .2090998484455801 6.5322e-08  
a 3.143098362228483 2.8802e-08 AU
q 2.485876971036956 2.0058e-07 AU
i 14.09599454263375 8.7717e-06 deg
node 312.0679585815083 2.9412e-05 deg
peri 148.4486832176296 3.8207e-05 deg
M 80.64351185668201 2.1722e-05 deg
tp 2456544.565646175807
(2013-Sep-09.06564618)
0.00012139 JED
period 2035.332584082017
5.57
2.7976e-05
7.659e-08
d
yr
n .1768752698283797 2.4312e-09 deg/d
Q 3.80031975342001 3.4825e-08 AU
  Orbit Determination Parameters
   # obs. used (total)      846  
   data-arc span      16961 days (46.44 yr)  
   first obs. used      1969-01-15  
   last obs. used      2015-06-24  
   planetary ephem.      DE431  
   SB-pert. ephem.      SB431-BIG16  
   condition code      0  
   fit RMS      .50168  
   data source      ORB  
   producer      Otto Matic  
   solution date      2015-Jul-06 11:50:50  

Additional Information
 Earth MOID = 1.51386 AU 
 T_jup = 3.130 
[ show covariance matrix ]

Ephemeris | Orbit Diagram | Orbital Elements | Physical Parameters | Discovery Circumstances | Close-Approach Data ]

Physical Parameter Table
Parameter Symbol Value Units Sigma Reference Notes
absolute magnitude H 12.0 mag n/a MPO337296  

5190 Fry           Discovered 1990 Oct. 16 by S. Ueda and H. Kaneda at Kushiro.
Stephen Fry (b. 1957) is an English writer, actor, comedian, TV presenter and activist. He studied English Literature at Cambridge University, where he was very active in the Cambridge Footlights. Fry is the long-time host of the BBC comedy quiz show "QI".
NOTE: some special characters may not display properly (any characters within {} are an attempt to place the proper accent above a character)
Reference: MPC batch dated 2015-07-02Last Updated: 2015-07-06

[ show close-approach data ]
Alternate Designations
 1990 UR2 = 1969 AN = 1986 AN1 = 1989 PS 
Ephemeris | Orbit Diagram | Orbital Elements | Physical Parameters | Discovery Circumstances | Close-Approach Data ]
ABOUT SSD CREDITS/AWARDS PRIVACY/COPYRIGHT GLOSSARY LINKS
FirstGov 2015-Aug-29 18:57 UT
(server date/time)  
NASA Home Page
Site Manager:   Ryan S. Park
Webmaster  Alan B. Chamberlin